| time (UTC) | temp C | wind direction | speed KPH | gust KPH | rain 1hr cm | rain 24hr cm | rain mn cm | humidity % | barometer mb |
| 20260508012620 | 5 | 0 | 0.0 | 0.0 | 0.00 | 0.00 | 0.00 | 89 | 1011.6 |
| 20260508011420 | 6 | 0 | 0.0 | 0.0 | 0.00 | 0.00 | 0.00 | 88 | 1011.4 |
| 20260508010220 | 6 | 0 | 0.0 | 0.0 | 0.00 | 0.00 | 0.00 | 88 | 1011.2 |
| 20260508005020 | 6 | 0 | 0.0 | 0.0 | 0.00 | 0.00 | 0.00 | 86 | 1011.1 |
| 20260508003820 | 7 | 0 | 0.0 | 0.0 | 0.00 | 0.00 | 0.00 | 86 | 1011.1 |
| 20260508002619 | 7 | 0 | 0.0 | 0.0 | 0.00 | 0.00 | 0.00 | 85 | 1011.2 |
| 20260508001420 | 7 | 0 | 0.0 | 0.0 | 0.00 | 0.00 | 0.00 | 85 | 1011.0 |
| 20260507235431 | 7 | 0 | 0.0 | 0.0 | 0.00 | 0.00 | 0.00 | 85 | 1010.9 |
| 20260507234231 | 7 | 0 | 0.0 | 0.0 | 0.00 | 0.00 | 0.00 | 85 | 1010.9 |
| 20260507233031 | 7 | 0 | 0.0 | 0.0 | 0.00 | 0.00 | 0.00 | 83 | 1011.0 |
| 20260507231831 | 7 | 0 | 0.0 | 1.6 | 0.00 | 0.00 | 0.00 | 82 | 1011.0 |
| 20260507230631 | 8 | 0 | 0.0 | 4.8 | 0.00 | 0.00 | 0.00 | 81 | 1011.2 |
| 20260507225431 | 8 | 0 | 0.0 | 3.2 | 0.00 | 0.00 | 0.00 | 80 | 1010.9 |
| 20260507224231 | 8 | 0 | 0.0 | 1.6 | 0.00 | 0.00 | 0.00 | 78 | 1010.8 |
| 20260507223031 | 9 | 0 | 0.0 | 6.4 | 0.00 | 0.00 | 0.00 | 73 | 1010.8 |
| 20260507221832 | 10 | 0 | 0.0 | 3.2 | 0.00 | 0.00 | 0.00 | 70 | 1010.8 |
| 20260507220631 | 10 | 259 | 1.6 | 8.0 | 0.00 | 0.00 | 0.00 | 65 | 1010.6 |
| 20260507215431 | 10 | 0 | 0.0 | 8.0 | 0.00 | 0.00 | 0.00 | 61 | 1010.5 |
| 20260507214231 | 10 | 243 | 1.6 | 9.7 | 0.00 | 0.00 | 0.00 | 58 | 1010.5 |
| 20260507213031 | 11 | 0 | 0.0 | 9.7 | 0.00 | 0.00 | 0.00 | 55 | 1010.3 |
| 20260507211831 | 11 | 216 | 1.6 | 9.7 | 0.00 | 0.00 | 0.00 | 55 | 1010.2 |
| 20260507210631 | 12 | 239 | 1.6 | 11.3 | 0.00 | 0.00 | 0.00 | 54 | 1010.0 |
| 20260507205431 | 12 | 227 | 1.6 | 12.9 | 0.00 | 0.00 | 0.00 | 56 | 1010.1 |
| 20260507204231 | 12 | 223 | 1.6 | 11.3 | 0.00 | 0.00 | 0.00 | 53 | 1009.9 |
| 20260507203031 | 12 | 334 | 3.2 | 8.0 | 0.00 | 0.00 | 0.00 | 53 | 1009.9 |
| 20260507201830 | 12 | 5 | 1.6 | 8.0 | 0.00 | 0.00 | 0.00 | 54 | 1010.0 |
| 20260507200632 | 11 | 0 | 0.0 | 4.8 | 0.00 | 0.00 | 0.00 | 57 | 1010.1 |
| 20260507193726 | 12 | 227 | 3.2 | 8.0 | 0.00 | 0.00 | 0.00 | 55 | 1010.4 |
| 20260507192526 | 12 | 290 | 1.6 | 8.0 | 0.00 | 0.00 | 0.00 | 57 | 1010.4 |
| 20260507191326 | 12 | 0 | 0.0 | 8.0 | 0.00 | 0.00 | 0.00 | 56 | 1010.6 |
| 20260507190126 | 12 | 0 | 0.0 | 8.0 | 0.00 | 0.00 | 0.00 | 54 | 1010.5 |
| 20260507184927 | 11 | 0 | 0.0 | 6.4 | 0.00 | 0.00 | 0.00 | 54 | 1010.6 |
| 20260507183726 | 11 | 0 | 0.0 | 4.8 | 0.00 | 0.00 | 0.00 | 56 | 1010.6 |
| 20260507182527 | 11 | 219 | 1.6 | 11.3 | 0.00 | 0.00 | 0.00 | 58 | 1010.6 |
| 20260507181326 | 11 | 0 | 0.0 | 4.8 | 0.00 | 0.00 | 0.00 | 67 | 1010.7 |
| 20260507180126 | 10 | 0 | 0.0 | 4.8 | 0.00 | 0.00 | 0.00 | 78 | 1010.7 |
| 20260507174926 | 10 | 0 | 0.0 | 4.8 | 0.00 | 0.00 | 0.00 | 79 | 1010.8 |
| 20260507172701 | 10 | 0 | 0.0 | 3.2 | 0.00 | 0.00 | 0.00 | 76 | 1011.0 |
| 20260507171501 | 10 | 0 | 0.0 | 4.8 | 0.00 | 0.00 | 0.00 | 76 | 1011.0 |
| 20260507165657 | 11 | 0 | 0.0 | 3.2 | 0.00 | 0.00 | 0.00 | 72 | 1011.0 |
| 20260507164457 | 11 | 0 | 0.0 | 3.2 | 0.00 | 0.00 | 0.00 | 69 | 1011.2 |
| 20260507163257 | 11 | 0 | 0.0 | 6.4 | 0.00 | 0.00 | 0.00 | 67 | 1011.2 |
| 20260507162057 | 11 | 183 | 1.6 | 6.4 | 0.00 | 0.00 | 0.00 | 59 | 1011.3 |
| 20260507160857 | 11 | 0 | 0.0 | 3.2 | 0.00 | 0.00 | 0.00 | 62 | 1011.5 |
| 20260507155657 | 11 | 0 | 0.0 | 3.2 | 0.00 | 0.00 | 0.00 | 66 | 1011.5 |
| 20260507154457 | 11 | 0 | 0.0 | 6.4 | 0.00 | 0.00 | 0.00 | 67 | 1011.6 |
| 20260507153257 | 10 | 0 | 0.0 | 4.8 | 0.00 | 0.00 | 0.00 | 70 | 1011.7 |
| 20260507151547 | 10 | 0 | 0.0 | 11.3 | 0.00 | 0.00 | 0.00 | 72 | 1011.8 |
| 20260507150347 | 10 | 0 | 0.0 | 6.4 | 0.00 | 0.00 | 0.00 | 70 | 1011.8 |
| 20260507144556 | 10 | 0 | 0.0 | 4.8 | 0.00 | 0.00 | 0.00 | 71 | 1011.9 |
| 20260507143356 | 9 | 0 | 0.0 | 3.2 | 0.00 | 0.00 | 0.00 | 72 | 1012.0 |
| 20260507142156 | 9 | 0 | 0.0 | 3.2 | 0.00 | 0.00 | 0.00 | 73 | 1012.1 |
| 20260507140956 | 9 | 0 | 0.0 | 4.8 | 0.00 | 0.00 | 0.00 | 74 | 1012.0 |
| 20260507135756 | 8 | 0 | 0.0 | 4.8 | 0.00 | 0.00 | 0.00 | 76 | 1012.1 |
| 20260507134556 | 8 | 0 | 0.0 | 3.2 | 0.00 | 0.00 | 0.00 | 78 | 1012.2 |
| 20260507133356 | 8 | 0 | 0.0 | 1.6 | 0.00 | 0.00 | 0.00 | 79 | 1012.3 |
| 20260507132156 | 7 | 0 | 0.0 | 1.6 | 0.00 | 0.00 | 0.00 | 80 | 1012.3 |
| 20260507130955 | 7 | 0 | 0.0 | 1.6 | 0.00 | 0.00 | 0.00 | 81 | 1012.3 |
| 20260507125756 | 7 | 0 | 0.0 | 1.6 | 0.00 | 0.00 | 0.00 | 83 | 1012.2 |
| 20260507123152 | 5 | 0 | 0.0 | 0.0 | 0.00 | 0.03 | 0.00 | 86 | 1012.3 |
| 20260507121952 | 5 | 0 | 0.0 | 0.0 | 0.00 | 0.03 | 0.00 | 88 | 1012.3 |
| 20260507120752 | 4 | 0 | 0.0 | 3.2 | 0.00 | 0.03 | 0.00 | 89 | 1012.3 |
| 20260507114353 | 3 | 0 | 0.0 | 0.0 | 0.00 | 0.03 | 0.00 | 92 | 1012.3 |
| 20260507113152 | 3 | 0 | 0.0 | 0.0 | 0.00 | 0.03 | 0.00 | 92 | 1012.2 |
| 20260507111952 | 3 | 0 | 0.0 | 0.0 | 0.00 | 0.03 | 0.00 | 92 | 1012.1 |
| 20260507110752 | 2 | 0 | 0.0 | 0.0 | 0.00 | 0.03 | 0.00 | 91 | 1011.9 |
| 20260507105552 | 2 | 0 | 0.0 | 0.0 | 0.00 | 0.03 | 0.00 | 91 | 1011.9 |
| 20260507104353 | 2 | 0 | 0.0 | 0.0 | 0.00 | 0.03 | 0.00 | 91 | 1012.0 |
| 20260507103152 | 2 | 0 | 0.0 | 0.0 | 0.00 | 0.03 | 0.00 | 90 | 1012.0 |
| 20260507101952 | 3 | 0 | 0.0 | 0.0 | 0.00 | 0.03 | 0.00 | 90 | 1011.9 |
| 20260507100752 | 3 | 0 | 0.0 | 0.0 | 0.00 | 0.03 | 0.00 | 90 | 1011.8 |
| 20260507095552 | 3 | 0 | 0.0 | 0.0 | 0.00 | 0.03 | 0.00 | 90 | 1011.8 |
| 20260507094353 | 3 | 0 | 0.0 | 0.0 | 0.00 | 0.03 | 0.00 | 90 | 1011.9 |
| 20260507093152 | 3 | 0 | 0.0 | 0.0 | 0.00 | 0.03 | 0.00 | 90 | 1011.9 |
| 20260507091952 | 4 | 0 | 0.0 | 0.0 | 0.00 | 0.03 | 0.00 | 90 | 1011.9 |
| 20260507090752 | 3 | 0 | 0.0 | 0.0 | 0.00 | 0.03 | 0.00 | 91 | 1012.1 |
| 20260507085552 | 3 | 0 | 0.0 | 3.2 | 0.00 | 0.03 | 0.00 | 91 | 1012.0 |
| 20260507084352 | 3 | 0 | 0.0 | 1.6 | 0.00 | 0.03 | 0.00 | 91 | 1011.7 |
| 20260507083153 | 3 | 0 | 0.0 | 0.0 | 0.00 | 0.03 | 0.00 | 90 | 1011.6 |
| 20260507081952 | 4 | 0 | 0.0 | 0.0 | 0.00 | 0.03 | 0.00 | 90 | 1011.5 |
| 20260507080752 | 4 | 0 | 0.0 | 0.0 | 0.00 | 0.03 | 0.00 | 90 | 1011.5 |
| 20260507075553 | 4 | 0 | 0.0 | 0.0 | 0.00 | 0.03 | 0.00 | 90 | 1011.6 |
| 20260507074352 | 4 | 0 | 0.0 | 0.0 | 0.00 | 0.03 | 0.00 | 90 | 1011.5 |
| 20260507073152 | 4 | 0 | 0.0 | 0.0 | 0.00 | 0.03 | 0.00 | 90 | 1011.6 |
| 20260507071953 | 4 | 0 | 0.0 | 0.0 | 0.00 | 0.03 | 0.00 | 89 | 1011.7 |
| 20260507070752 | 4 | 0 | 0.0 | 0.0 | 0.00 | 0.03 | 0.00 | 89 | 1011.9 |
| 20260507065554 | 4 | 0 | 0.0 | 0.0 | 0.00 | 0.03 | 0.00 | 89 | 1011.9 |
| 20260507064353 | 4 | 0 | 0.0 | 0.0 | 0.00 | 0.03 | 0.00 | 88 | 1012.0 |
| 20260507062449 | 4 | 0 | 0.0 | 0.0 | 0.00 | 0.03 | 0.00 | 87 | 1012.0 |
| 20260507061250 | 5 | 0 | 0.0 | 0.0 | 0.00 | 0.03 | 0.00 | 86 | 1012.0 |
| 20260507060050 | 5 | 0 | 0.0 | 0.0 | 0.00 | 0.03 | 0.00 | 85 | 1012.1 |
| 20260507054849 | 5 | 0 | 0.0 | 0.0 | 0.00 | 0.03 | 0.00 | 84 | 1012.1 |
| 20260507053650 | 5 | 0 | 0.0 | 0.0 | 0.00 | 0.03 | 0.00 | 84 | 1012.4 |
| 20260507052450 | 5 | 0 | 0.0 | 0.0 | 0.00 | 0.03 | 0.00 | 85 | 1012.6 |
| 20260507051249 | 5 | 0 | 0.0 | 0.0 | 0.00 | 0.03 | 0.00 | 85 | 1012.7 |
| 20260507050050 | 5 | 0 | 0.0 | 0.0 | 0.00 | 0.05 | 0.00 | 84 | 1012.9 |
| 20260507044849 | 5 | 0 | 0.0 | 0.0 | 0.00 | 0.05 | 0.00 | 85 | 1012.7 |
| 20260507043650 | 5 | 0 | 0.0 | 0.0 | 0.00 | 0.05 | 0.00 | 85 | 1012.8 |
| 20260507042450 | 5 | 0 | 0.0 | 0.0 | 0.00 | 0.05 | 0.00 | 83 | 1012.7 |
| 20260507040049 | 5 | 0 | 0.0 | 0.0 | 0.00 | 0.05 | 0.00 | 83 | 1012.8 |
| 20260507034849 | 5 | 0 | 0.0 | 0.0 | 0.00 | 0.05 | 0.00 | 82 | 1012.9 |
| 20260507033649 | 5 | 0 | 0.0 | 0.0 | 0.00 | 0.05 | 0.05 | 81 | 1013.0 |
| 20260507032449 | 5 | 0 | 0.0 | 0.0 | 0.00 | 0.05 | 0.05 | 81 | 1013.0 |
| 20260507031249 | 6 | 0 | 0.0 | 0.0 | 0.00 | 0.05 | 0.05 | 80 | 1012.8 |
| 20260507030050 | 6 | 0 | 0.0 | 0.0 | 0.00 | 0.05 | 0.05 | 78 | 1013.0 |
| 20260507024850 | 6 | 0 | 0.0 | 0.0 | 0.00 | 0.05 | 0.05 | 76 | 1012.9 |
| 20260507023649 | 6 | 0 | 0.0 | 0.0 | 0.00 | 0.05 | 0.05 | 76 | 1013.0 |
| 20260507021626 | 6 | 0 | 0.0 | 0.0 | 0.00 | 0.05 | 0.05 | 75 | 1013.0 |
| 20260507020426 | 6 | 0 | 0.0 | 0.0 | 0.00 | 0.05 | 0.05 | 72 | 1012.8 |
| 20260507015227 | 7 | 0 | 0.0 | 0.0 | 0.00 | 0.05 | 0.05 | 69 | 1012.8 |
| 20260507014027 | 7 | 0 | 0.0 | 0.0 | 0.00 | 0.05 | 0.05 | 69 | 1012.9 |